Home > Weather > Odessa > Past weeks

Flag for USA Weather for the Past 2 Weeks in Odessa, Texas, USA

Now
67 °F

Clear.


Feels Like: 67 °F
Forecast: 62 / 88 °F
Wind: 9 mph from Southeast

Location: Odessa-Schlemeyer Field

Current Time: May 6, 2016 at 3:02:16 AM

Latest Report: May 6, 2016 at 1:53 AM


Visibility: 10 mi

Pressure: 29.93 "Hg (27.00 "Hg at 882m altitude)

Humidity: 35%

Dew Point: 38 °F

Location of OdessaLocation

Historic Weather in Odessa — Graph

°F

Odessa Temperature Yesterday

Maximum temperature yesterday: 87 °F (at 4:53 PM)
Minimum temperature yesterday: 56 °F (at 4:53 AM)
Average temperature yesterday: 73 °F

High & Low Weather Summary for the Past Weeks

 TemperatureHumidityPressure
High91 °F (Apr 24, 3:53 PM)87% (Apr 21, 3:53 AM)30.22 "Hg (Apr 21, 3:53 AM)
Low46 °F (May 2, 5:53 AM)6% (Apr 26, 4:53 PM)29.48 "Hg (Apr 26, 4:53 PM)
Average70 °F37%29.83 "Hg
* Reported Apr 21 1:53 AM — May 6 1:53 AM, Odessa, Weather by CustomWeather, © 2016

Note: Actual official high and low records may vary slightly from our data, if they occured in-between our weather recording intervals... More about our weather records

Advertising

Odessa Weather History for the Previous 24 Hours

Scroll right to see more
 ConditionsComfort  
Time TempWeatherWind HumidityBarometerVisibility
1:53 AM
Fri, May 6
67 °FClear.9 mph35%29.93 "Hg10 mi
12:53 AM69 °FClear.13 mph31%29.93 "Hg10 mi
11:53 PM
Thu, May 5
71 °FClear.14 mph28%29.94 "Hg10 mi
10:53 PM73 °FClear.14 mph25%29.94 "Hg10 mi
9:53 PM76 °FClear.12 mph20%29.94 "Hg10 mi
8:53 PM79 °FSunny.13 mph17%29.92 "Hg10 mi
7:53 PM83 °FSunny.14 mph14%29.91 "Hg10 mi
6:53 PM85 °FSunny.14 mph13%29.91 "Hg10 mi
5:53 PM85 °FSunny.14 mph13%29.92 "Hg10 mi
4:53 PM87 °FSunny.13 mph12%29.93 "Hg10 mi
3:53 PM86 °FSunny.15 mph12%29.95 "Hg10 mi
2:53 PM86 °FSunny.12 mph13%29.97 "Hg10 mi
1:53 PM85 °FSunny.12 mph13%29.99 "Hg10 mi
12:53 PM84 °FSunny.12 mph14%30.01 "Hg10 mi
11:53 AM81 °FSunny.12 mph16%30.03 "Hg10 mi
10:53 AM76 °FSunny.9 mph21%30.05 "Hg10 mi
9:53 AM72 °FSunny.6 mph24%30.05 "Hg10 mi
8:53 AM68 °FSunny.No wind28%30.06 "Hg10 mi
7:53 AM60 °FClear.No wind36%30.03 "Hg10 mi
6:53 AM59 °FClear.3 mph36%30.01 "Hg10 mi
5:53 AM57 °FClear.5 mph39%30.00 "Hg10 mi
4:53 AM56 °FClear.7 mph40%30.00 "Hg10 mi
3:53 AM60 °FClear.8 mph33%29.98 "Hg10 mi
Weather by CustomWeather, © 2016

See weather overviewHow to use our weather pages